CAPE
0 0 0 0 0 0 0 0 0 0 0 0 0 0 0 0 0 0 0 0 2 4 6 7 11 15 14 16 25 29 46 62 54 52 68 66 60 97
0 0 0 0 0 0 0 0 0 0 0 0 0 0 0 0 0 0 0 0 0 0 1 5 9 9 13 19 29 31 29 33 39 60 71 70 71 79
0 0 0 0 0 0 0 0 0 0 0 0 0 0 0 0 0 0 0 0 0 0 0 1 5 11 24 24 18 14 15 23 37 48 67 75 76 70
0 0 0 0 0 0 0 0 0 0 0 0 0 0 0 0 0 0 0 0 0 0 0 0 4 8 9 6 4 8 15 17 18 25 38 71 71 93
0 0 0 0 0 0 0 0 0 0 0 0 0 0 0 0 0 0 0 0 0 0 0 0 0 2 1 1 3 7 12 17 15 23 32 61 65 64
0 0 0 0 0 0 0 0 0 0 0 0 0 0 0 0 0 0 0 0 0 0 0 0 0 0 0 1 1 3 4 9 16 30 38 23 29 52
0 0 0 0 0 0 0 0 0 0 0 0 0 0 0 0 0 0 0 0 0 0 0 0 0 0 0 0 0 0 3 13 24 23 34 23 27 22
0 0 0 0 0 0 0 0 0 0 0 0 0 0 0 0 0 0 0 0 0 0 0 0 0 0 0 0 1 3 4 11 20 18 24 25 30 23
0 0 0 0 0 0 0 0 0 0 0 0 0 0 0 0 0 0 2 0 0 0 0 0 0 0 0 0 0 3 4 11 16 16 15 19 25 26
0 0 0 0 0 0 0 0 0 0 0 0 0 0 0 0 1 2 1 1 0 0 0 0 0 0 0 0 0 4 11 12 18 15 11 15 14 19
0 0 0 0 0 0 0 0 0 0 0 1 4 1 1 2 3 2 1 4 3 0 0 0 0 1 0 0 0 0 6 12 24 12 11 23 19 12
0 0 0 0 0 0 0 0 0 0 0 0 0 0 0 0 4 2 2 3 7 4 0 0 0 3 6 0 0 0 0 7 19 9 20 13 33 11
0 0 0 0 0 0 0 0 0 0 0 0 0 0 0 0 0 3 2 4 8 10 2 2 5 7 12 9 0 0 0 0 1 4 12 17 10 17
0 0 0 0 0 0 0 0 0 0 0 0 0 0 0 1 1 1 0 1 1 2 1 1 3 10 6 3 5 0 0 0 2 1 0 2 8 29
0 0 0 0 0 0 0 0 0 0 1 0 1 1 3 1 0 0 2 1 0 1 1 8 5 13 10 5 2 2 7 0 4 0 0 0 0 7
0 0 0 0 0 0 0 0 0 0 1 1 1 2 2 0 3 1 5 7 5 1 1 7 5 11 6 6 4 3 0 10 0 0 5 0 0 5
0 0 0 0 0 0 0 0 0 0 0 0 0 0 0 2 1 5 8 7 5 5 3 4 3 0 1 0 0 0 0 9 0 4 0 2 0 7
0 0 0 0 0 0 0 0 0 0 2 0 1 2 2 2 1 4 6 6 4 1 1 5 5 0 0 0 0 8 3 0 0 5 2 0 0 0
0 0 0 0 0 1 1 0 0 0 2 3 3 2 2 1 1 2 6 6 1 1 6 2 1 6 0 0 0 0 0 0 0 0 0 0 0 0
0 0 0 0 1 0 3 0 0 1 2 2 2 0 0 1 1 2 4 1 1 3 2 1 3 3 1 0 0 0 0 0 0 0 0 0 0 9
0 0 0 2 1 3 4 5 3 0 1 2 1 1 1 1 3 3 4 4 2 2 2 1 2 13 0 1 0 0 0 3 0 0 0 0 0 3
0 0 1 3 2 7 7 3 2 0 1 1 0 0 0 1 2 3 4 3 2 3 3 3 0 2 1 1 0 0 0 0 0 2 0 0 2 0
0 1 3 3 5 9 6 3 1 0 0 0 0 0 0 1 0 4 4 4 3 2 3 0 4 0 0 3 2 0 0 0 0 0 0 3 0 0
CIN
0 0 0 0 0 0 0 0 0 0 0 0 0 0 0 0 0 0 0 0 0 0 0 0 0 0 0 0 0 0 0 0 0 0 0 0 0 0
0 0 0 0 0 0 0 0 0 0 0 0 0 0 0 0 0 0 0 0 0 0 0 0 0 0 0 0 0 0 0 0 0 0 0 0 0 0
0 0 0 0 0 0 0 0 0 0 0 0 0 0 0 0 0 0 0 0 0 0 0 0 0 0 0 0 0 0 0 0 0 0 0 0 0 0
0 0 0 0 0 0 0 0 0 0 0 0 0 0 0 0 0 0 0 0 0 0 0 0 0 0 0 0 0 0 0 0 0 0 0 0 0 0
0 0 0 0 0 0 0 0 0 0 0 0 0 0 0 0 0 0 0 0 0 0 0 0 0 0 0 0 0 0 0 0 0 0 0 0 0 0
0 0 0 0 0 0 0 0 0 0 0 0 0 0 0 0 0 0 0 0 0 0 0 0 0 0 0 0 0 0 0 0 0 0 0 0 -1 0
0 0 0 0 0 0 0 0 0 0 0 0 0 0 0 0 0 0 0 0 0 0 0 0 0 0 0 0 0 0 0 0 0 0 0 0 0 0
0 0 0 0 0 0 0 0 0 0 0 0 0 0 0 0 0 0 0 0 0 0 0 0 0 0 0 0 0 0 0 0 0 0 0 0 0 0
0 0 0 0 0 0 0 0 0 0 0 0 -1 -1 0 0 0 -1 0 -1 0 0 0 0 0 0 0 0 0 0 0 0 0 0 0 0 0 0
0 0 0 0 0 0 0 0 0 0 0 0 -1 0 0 0 -1 -1 -1 -1 0 0 0 0 0 0 0 0 -1 0 0 0 0 0 0 0 0 0
0 0 0 0 0 0 0 0 0 0 0 -1 0 0 0 0 0 0 0 0 0 0 0 0 0 0 0 0 0 0 0 0 0 0 0 0 0 0
0 0 0 0 0 0 0 0 0 0 0 0 0 0 0 0 0 -1 -1 -1 0 0 0 0 -2 -1 -1 0 0 0 0 0 0 0 0 0 0 -1
0 0 0 0 0 0 0 -1 -1 -1 0 0 0 0 -1 0 0 -3 -1 -1 0 0 -1 -1 -1 0 0 0 0 0 -5 0 -3 -6 0 0 0 0
0 0 0 0 0 0 0 0 0 0 0 0 0 0 0 0 0 -1 0 -1 -1 0 -3 -1 0 0 0 -1 -1 0 -1 0 -7 -6 0 -1 0 0
0 0 0 0 0 0 0 0 0 0 -2 0 0 0 -1 -1 -2 -2 -2 -1 -1 -1 -2 0 -1 0 0 0 -1 -2 -1 0 -4 0 -7 0 0 -1
0 0 0 0 0 0 0 0 0 0 0 0 0 0 -1 -2 -1 -1 -1 -1 -1 -1 -2 -2 -2 -1 -1 -1 0 -1 -1 0 0 0 -5 0 0 -2
0 0 0 0 0 0 0 0 0 -1 -1 0 0 0 -1 0 0 -2 0 0 0 0 -3 -5 -3 -2 -2 0 0 -1 -2 -1 0 -4 0 -1 0 -1
0 0 0 0 0 0 0 -1 -1 -1 0 0 0 -1 -1 0 -1 -1 -1 0 0 -4 -3 -1 -4 -3 0 0 -1 -2 -2 -1 0 -3 -3 -1 0 0
0 0 0 0 -2 0 0 0 0 -1 -1 -1 -1 -2 -1 -1 -1 -1 0 0 -2 -2 -1 -5 -4 0 -2 0 0 0 0 0 0 0 0 0 0 0
0 0 0 -1 -1 -1 0 -1 0 -1 -1 -2 -2 -1 -1 -1 -1 -1 -1 -2 -2 -1 -2 -2 -1 -1 -2 0 -1 0 0 0 0 0 0 0 0 -1
0 0 0 -2 -1 -1 -1 0 0 -1 -1 -1 -1 -2 -1 -1 -1 -2 -2 0 -1 -2 -1 -3 -2 0 -1 -4 0 0 0 0 0 -1 0 0 0 -1
0 0 -2 -2 -1 -1 0 -1 -1 0 -1 -1 -1 0 0 -1 -1 0 -1 -1 -1 0 -1 -2 -8 -3 -2 -4 -1 0 0 0 0 0 0 0 0 0
0 -1 -1 -2 0 -1 -1 -1 0 0 0 -1 0 0 -1 0 -1 0 -1 -1 -1 -1 -2 -1 -3 -2 0 -1 -1 0 0 0 0 0 0 0 0 0
Wind_Speed
8 9 7 5 3 3 4 3 2 2 2 4 1 4 4 4 6 6 8 13 17 16 17 17 17 18 20 22 23 25 23 24 25 26 26 25 26 26
6 7 6 5 4 3 1 3 3 3 3 3 2 4 5 6 7 7 7 13 14 16 18 18 20 21 21 20 21 22 21 23 24 25 25 26 26 25
7 7 7 5 3 2 1 1 0 2 3 4 3 4 5 6 6 7 8 7 7 16 17 20 19 19 20 21 20 20 21 21 23 25 26 25 24 25
8 7 6 4 5 3 1 1 2 2 3 7 6 4 5 5 5 7 7 7 7 14 19 17 17 20 19 19 19 20 20 19 22 25 27 26 25 23
6 6 6 4 4 3 2 2 1 3 3 4 6 3 3 4 5 6 6 8 7 15 16 16 19 18 18 18 18 19 19 20 24 25 24 24 23 22
6 6 5 4 3 3 1 1 2 3 3 5 5 5 4 4 4 6 8 7 8 9 11 14 17 18 18 18 18 18 20 23 23 23 21 21 23 21
7 6 6 6 6 3 2 4 2 3 3 4 5 5 4 6 6 6 7 8 9 5 8 8 8 8 8 13 14 18 19 20 21 23 23 22 23 23
6 6 5 3 3 2 4 5 5 5 5 5 5 5 7 7 6 6 7 8 7 3 10 9 8 8 8 7 19 17 18 19 21 20 20 20 21 22
5 4 2 3 1 2 4 3 3 2 4 5 6 6 7 7 7 7 8 8 8 9 9 9 8 9 9 10 20 16 17 20 20 21 21 22 21 22
4 3 3 2 3 5 7 5 4 3 2 5 6 7 6 7 7 7 8 9 8 7 8 6 6 10 9 10 18 15 20 19 20 21 22 21 21 21
3 4 2 2 7 8 6 4 4 3 1 6 10 10 9 8 7 5 6 7 7 9 7 4 6 10 9 10 4 21 19 19 22 20 19 20 20 19
3 4 6 6 7 7 6 5 3 4 4 5 5 5 4 5 8 5 4 5 6 5 3 6 7 7 5 4 8 6 10 16 21 18 21 21 21 8
2 2 3 4 4 5 5 3 5 6 6 4 4 4 4 4 5 6 6 5 6 6 10 8 6 7 5 9 7 8 6 10 9 9 16 20 21 16
2 1 3 4 5 4 4 6 6 6 3 4 4 3 4 6 7 8 9 8 7 10 11 10 6 7 8 9 10 7 11 9 7 5 7 14 19 17
2 5 2 2 3 2 3 6 6 3 3 4 4 5 5 6 8 8 8 9 10 10 9 7 7 7 7 9 9 9 12 7 4 8 8 9 8 7
3 2 1 2 2 3 4 2 2 2 3 4 5 5 5 5 6 6 7 7 7 8 7 8 8 8 9 8 9 8 8 7 6 6 9 9 7 5
2 1 1 1 2 1 1 2 2 3 4 4 5 6 6 7 7 6 6 6 6 7 8 7 6 9 8 10 9 6 7 6 6 8 10 8 7 5
2 1 1 1 2 2 2 3 4 5 3 5 5 4 5 5 6 5 5 5 6 8 8 6 8 8 6 6 7 4 5 6 8 8 8 7 7 6
2 1 1 1 1 3 3 4 5 4 4 4 4 4 5 6 9 6 6 5 6 7 6 7 7 6 8 9 5 5 7 5 6 7 7 6 5 6
0 1 1 1 3 4 3 4 5 4 4 4 5 5 5 6 6 6 5 6 6 7 6 6 6 6 5 6 6 7 14 3 3 6 7 6 6 9
1 1 1 2 3 3 3 3 4 5 5 4 4 5 5 4 6 5 6 12 12 6 7 7 7 16 3 5 4 6 5 9 10 3 4 5 5 3
2 1 3 2 3 3 3 3 4 5 4 5 5 6 6 5 6 6 5 6 6 6 6 6 7 5 5 4 6 7 7 4 10 12 4 4 2 4
1 3 2 3 3 3 3 3 5 6 5 5 5 6 5 6 6 5 5 5 5 6 5 7 5 2 4 3 9 6 7 5 3 4 4 11 6 10
Wind_Direction
86 84 83 68 48 37 28 359 342 307 336 119 18 47 1 342 325 341 316 337 317 326 328 328 323 326 325 326 330 325 326 326 316 317 318 316 315 319
91 97 98 92 74 63 26 26 3 326 286 38 352 352 327 323 330 320 329 320 321 327 327 325 327 327 324 319 324 320 322 318 325 322 321 317 317 316
96 91 92 111 97 92 80 60 174 308 285 309 344 336 331 318 318 340 320 323 325 326 328 328 327 324 323 321 318 321 322 327 325 324 321 315 313 314
112 119 117 113 98 83 66 38 327 331 323 306 310 309 309 338 338 326 330 324 319 322 325 330 322 324 319 324 328 323 321 324 324 323 318 315 313 317
122 113 113 126 124 117 95 25 352 329 304 300 300 325 311 325 340 323 334 320 325 325 324 327 328 326 333 336 329 325 326 321 320 314 310 324 324 316
96 96 99 94 84 54 110 160 38 327 310 307 316 319 318 338 341 341 333 328 322 316 321 329 329 338 339 334 334 331 327 321 313 309 317 321 326 327
118 116 82 68 57 45 9 22 17 0 324 327 313 319 330 344 339 337 330 318 313 295 330 320 331 333 319 330 327 332 329 322 325 324 320 316 315 313
117 116 112 103 150 122 56 19 3 353 333 330 315 323 327 328 332 328 320 324 325 329 326 320 334 319 332 318 326 320 322 322 323 324 321 317 312 308
104 113 142 102 321 310 125 194 264 294 302 295 299 311 319 335 317 318 312 318 305 312 317 316 324 327 317 325 317 316 321 320 321 321 322 319 319 316
95 102 96 88 73 354 347 7 350 314 14 312 330 319 314 316 316 317 314 305 310 317 337 293 342 316 322 314 308 330 325 321 320 323 324 324 323 319
110 68 27 48 30 5 339 351 338 310 312 261 284 288 296 302 325 327 321 323 326 324 319 336 322 310 312 300 340 331 328 322 329 333 332 332 331 330
121 100 56 16 5 357 346 340 302 338 329 309 305 310 316 317 305 304 292 297 306 307 339 336 312 331 301 286 329 309 312 334 335 332 336 334 330 328
76 86 92 15 349 346 329 314 336 324 304 319 328 325 337 347 332 337 330 312 298 278 297 313 307 305 282 305 307 310 326 325 317 325 331 332 331 334
102 128 98 12 346 328 325 340 325 315 4 343 330 336 332 328 332 326 315 312 300 290 293 288 288 297 296 299 303 318 321 308 305 323 331 329 326 326
46 73 21 287 303 260 3 343 335 5 348 315 320 320 329 321 321 321 325 318 310 306 300 298 295 298 294 297 300 301 315 309 326 333 334 323 316 322
147 150 4 322 300 315 323 330 344 355 317 320 321 321 311 314 320 328 317 323 313 316 305 314 317 318 305 294 294 302 302 305 334 333 324 314 315 319
34 333 301 317 316 290 286 279 295 321 321 316 313 313 314 318 320 315 313 314 311 314 312 314 322 319 295 287 291 287 302 321 332 326 323 318 323 339
230 244 282 330 313 331 333 335 321 314 321 318 306 304 305 305 298 304 304 309 309 306 305 324 320 318 319 308 341 311 320 333 323 318 318 324 320 336
243 151 262 290 321 309 303 304 303 307 320 286 295 293 295 303 317 310 309 311 305 304 319 319 314 326 330 326 288 347 331 318 321 324 324 319 313 320
346 281 295 305 295 292 302 298 299 303 297 293 288 302 300 298 306 306 314 312 304 314 319 320 323 322 319 315 309 301 306 301 317 315 322 325 293 294
229 245 224 258 276 278 281 287 288 288 281 287 292 291 302 297 298 301 306 327 328 317 318 321 318 323 297 276 300 310 308 338 333 279 301 319 315 309
231 242 267 253 266 263 267 281 288 294 294 297 301 305 305 298 294 298 309 309 313 311 306 315 306 326 328 305 313 301 305 316 319 333 306 350 305 323
219 278 277 274 267 258 263 276 287 291 292 295 300 304 299 296 293 294 293 303 303 308 321 314 316 320 292 307 319 310 314 306 320 332 313 353 335 328